Time,TemperatureF,DewpointF,PressureIn,WindDirection,WindDirectionDegrees,WindSpeedMPH,WindSpeedGustMPH,Humidity,HourlyPrecipIn,Conditions,Clouds,dailyrainin,SoftwareType,DateUTC
2013-04-08 00:05:00,34.3,29.1,29.82,NE,45,12.3,12.3,81,0.04,,---,0.00,VWS V13.01,2013-04-08 06:05:00,
2013-04-08 00:10:00,34.3,29.1,29.83,ENE,68,10.7,10.7,81,0.04,,---,0.00,VWS V13.01,2013-04-08 06:10:00,
2013-04-08 00:16:00,34.3,29.1,29.83,ENE,68,8.0,8.0,81,0.02,,---,0.00,VWS V13.01,2013-04-08 06:16:00,
2013-04-08 00:22:00,34.1,29.2,29.84,ENE,68,7.1,10.9,82,0.02,,---,0.00,VWS V13.01,2013-04-08 06:22:00,
2013-04-08 00:27:00,34.1,29.2,29.84,NNE,22,7.1,7.1,82,0.02,,---,0.00,VWS V13.01,2013-04-08 06:27:00,
2013-04-08 00:33:00,33.9,29.0,29.84,NNE,22,3.8,10.0,82,0.02,,---,0.00,VWS V13.01,2013-04-08 06:33:00,
2013-04-08 00:38:00,33.8,28.9,29.85,ENE,68,8.5,8.5,82,0.00,,---,0.00,VWS V13.01,2013-04-08 06:38:00,
2013-04-08 00:44:00,33.6,28.7,29.85,NE,45,9.8,9.8,82,0.00,,---,0.00,VWS V13.01,2013-04-08 06:44:00,
2013-04-08 00:49:00,33.6,28.7,29.86,NE,45,11.4,11.4,82,0.00,,---,0.00,VWS V13.01,2013-04-08 06:49:00,
2013-04-08 00:54:00,33.2,28.3,29.86,NE,45,6.7,8.7,82,0.00,,---,0.00,VWS V13.01,2013-04-08 06:54:00,
2013-04-08 00:59:00,33.0,28.1,29.86,ENE,68,13.6,13.6,82,0.00,,---,0.00,VWS V13.01,2013-04-08 06:59:00,
2013-04-08 01:05:00,32.9,27.7,29.87,NNE,22,6.7,6.7,81,0.00,,---,0.00,VWS V13.01,2013-04-08 07:05:00,
2013-04-08 01:10:00,32.7,27.5,29.88,North,0,6.2,11.6,81,0.00,,---,0.00,VWS V13.01,2013-04-08 07:10:00,
2013-04-08 01:15:00,32.5,27.3,29.88,NNE,22,13.6,13.6,81,0.00,,---,0.00,VWS V13.01,2013-04-08 07:15:00,
2013-04-08 01:20:00,32.3,27.1,29.88,ENE,68,4.6,8.2,81,0.00,,---,0.00,VWS V13.01,2013-04-08 07:20:00,
2013-04-08 01:25:00,32.1,26.9,29.89,NE,45,13.1,13.1,81,0.00,,---,0.00,VWS V13.01,2013-04-08 07:25:00,
2013-04-08 01:30:00,32.1,26.9,29.89,NE,45,6.4,9.3,81,0.00,,---,0.00,VWS V13.01,2013-04-08 07:30:00,
2013-04-08 01:35:00,32.0,26.8,29.89,NE,45,6.4,9.8,81,0.00,,---,0.00,VWS V13.01,2013-04-08 07:35:00,
2013-04-08 01:41:00,31.8,26.4,29.90,NE,45,6.2,6.2,80,0.00,,---,0.00,VWS V13.01,2013-04-08 07:41:00,
2013-04-08 01:46:00,31.8,26.4,29.91,NE,45,6.2,6.2,80,0.00,,---,0.00,VWS V13.01,2013-04-08 07:46:00,
2013-04-08 01:51:00,31.6,26.1,29.91,NE,45,7.1,7.1,80,0.00,,---,0.00,VWS V13.01,2013-04-08 07:51:00,
2013-04-08 01:57:00,31.2,25.8,29.91,NE,45,6.0,12.0,80,0.00,,---,0.00,VWS V13.01,2013-04-08 07:57:00,
2013-04-08 02:02:00,31.1,25.7,29.92,NE,45,6.4,6.4,80,0.00,,---,0.00,VWS V13.01,2013-04-08 08:02:00,
2013-04-08 02:07:00,30.9,25.8,29.92,NE,45,7.3,7.3,81,0.00,,---,0.00,VWS V13.01,2013-04-08 08:07:00,
2013-04-08 02:12:00,30.7,25.6,29.92,NE,45,8.2,8.2,81,0.00,,---,0.00,VWS V13.01,2013-04-08 08:12:00,
2013-04-08 02:17:00,30.5,25.4,29.93,NE,45,2.4,2.4,81,0.00,,---,0.00,VWS V13.01,2013-04-08 08:17:00,
2013-04-08 02:22:00,30.2,25.1,29.93,NE,45,9.6,9.6,81,0.00,,---,0.00,VWS V13.01,2013-04-08 08:22:00,
2013-04-08 02:28:00,30.0,24.9,29.93,NE,45,5.5,5.5,81,0.00,,---,0.00,VWS V13.01,2013-04-08 08:28:00,
2013-04-08 02:34:00,29.8,24.7,29.94,NE,45,7.6,7.6,81,0.00,,---,0.00,VWS V13.01,2013-04-08 08:34:00,
2013-04-08 02:39:00,29.6,24.5,29.94,NE,45,2.6,3.8,81,0.00,,---,0.00,VWS V13.01,2013-04-08 08:39:00,
2013-04-08 02:44:00,29.4,24.3,29.94,NE,45,4.6,4.6,81,0.00,,---,0.00,VWS V13.01,2013-04-08 08:44:00,
2013-04-08 02:49:00,29.3,24.5,29.94,NE,45,0.0,0.0,82,0.00,,---,0.00,VWS V13.01,2013-04-08 08:49:00,
2013-04-08 02:54:00,29.1,24.3,29.94,NE,45,0.0,0.0,82,0.00,,---,0.00,VWS V13.01,2013-04-08 08:54:00,
2013-04-08 02:59:00,28.7,23.9,29.95,NE,45,0.0,0.0,82,0.00,,---,0.00,VWS V13.01,2013-04-08 08:59:00,
2013-04-08 03:05:00,28.5,23.7,29.95,NE,45,6.4,6.4,82,0.00,,---,0.00,VWS V13.01,2013-04-08 09:05:00,
2013-04-08 03:10:00,28.2,23.4,29.95,NE,45,2.0,2.0,82,0.00,,---,0.00,VWS V13.01,2013-04-08 09:10:00,
2013-04-08 03:16:00,28.2,23.4,29.96,NE,45,1.7,1.7,82,0.00,,---,0.00,VWS V13.01,2013-04-08 09:16:00,
2013-04-08 03:21:00,28.0,23.2,29.96,NE,45,6.4,6.4,82,0.00,,---,0.00,VWS V13.01,2013-04-08 09:21:00,
2013-04-08 03:27:00,27.6,22.8,29.95,NE,45,6.4,6.4,82,0.00,,---,0.00,VWS V13.01,2013-04-08 09:27:00,
2013-04-08 03:32:00,27.5,22.7,29.96,NE,45,6.7,6.7,82,0.00,,---,0.00,VWS V13.01,2013-04-08 09:32:00,
2013-04-08 03:37:00,27.3,22.5,29.96,NE,45,0.0,0.0,82,0.00,,---,0.00,VWS V13.01,2013-04-08 09:37:00,
2013-04-08 03:42:00,27.1,22.4,29.96,NE,45,0.0,0.0,82,0.00,,---,0.00,VWS V13.01,2013-04-08 09:42:00,
2013-04-08 03:47:00,27.1,22.4,29.96,NE,45,5.1,5.1,82,0.00,,---,0.00,VWS V13.01,2013-04-08 09:47:00,
2013-04-08 03:52:00,27.1,22.4,29.96,NE,45,4.4,5.8,82,0.00,,---,0.00,VWS V13.01,2013-04-08 09:52:00,
2013-04-08 03:57:00,27.1,22.4,29.96,NE,45,5.1,5.1,82,0.00,,---,0.00,VWS V13.01,2013-04-08 09:57:00,
2013-04-08 04:02:00,26.9,22.1,29.97,NE,45,5.8,5.8,82,0.00,,---,0.00,VWS V13.01,2013-04-08 10:02:00,
2013-04-08 04:07:00,26.7,22.0,29.97,NE,45,0.0,0.8,82,0.00,,---,0.00,VWS V13.01,2013-04-08 10:07:00,
2013-04-08 04:13:00,26.7,22.0,29.98,NE,45,0.0,0.0,82,0.00,,---,0.00,VWS V13.01,2013-04-08 10:13:00,
2013-04-08 04:19:00,26.7,22.0,29.98,NE,45,2.4,2.4,82,0.00,,---,0.00,VWS V13.01,2013-04-08 10:19:00,
2013-04-08 04:25:00,26.7,22.0,29.98,NE,45,3.1,3.1,82,0.00,,---,0.00,VWS V13.01,2013-04-08 10:25:00,
2013-04-08 04:30:00,26.6,21.9,30.00,NE,45,0.0,4.4,82,0.00,,---,0.00,VWS V13.01,2013-04-08 10:30:00,
2013-04-08 04:35:00,26.4,21.7,30.01,NE,45,0.0,3.5,82,0.00,,---,0.00,VWS V13.01,2013-04-08 10:35:00,
2013-04-08 04:40:00,26.4,21.4,30.02,NE,45,6.2,6.2,81,0.00,,---,0.00,VWS V13.01,2013-04-08 10:40:00,
2013-04-08 04:45:00,26.2,21.2,30.02,NE,45,4.4,4.4,81,0.00,,---,0.00,VWS V13.01,2013-04-08 10:45:00,
2013-04-08 04:50:00,26.0,21.0,30.01,NE,45,7.6,7.6,81,0.00,,---,0.00,VWS V13.01,2013-04-08 10:50:00,
2013-04-08 04:55:00,25.8,20.8,30.01,NE,45,4.9,4.9,81,0.00,,---,0.00,VWS V13.01,2013-04-08 10:55:00,
2013-04-08 05:00:00,25.5,20.2,30.01,NE,45,5.5,5.5,80,0.00,,---,0.00,VWS V13.01,2013-04-08 11:00:00,
2013-04-08 05:06:00,25.5,20.2,30.01,NE,45,5.1,5.1,80,0.00,,---,0.00,VWS V13.01,2013-04-08 11:06:00,
2013-04-08 05:11:00,25.3,20.0,30.02,NE,45,5.8,5.8,80,0.00,,---,0.00,VWS V13.01,2013-04-08 11:11:00,
2013-04-08 05:17:00,25.1,19.8,30.02,NE,45,5.5,5.5,80,0.00,,---,0.00,VWS V13.01,2013-04-08 11:17:00,
2013-04-08 05:22:00,24.9,19.6,30.02,NE,45,3.3,6.0,80,0.00,,---,0.00,VWS V13.01,2013-04-08 11:22:00,
2013-04-08 05:27:00,24.9,19.6,30.02,NE,45,4.6,4.6,80,0.00,,---,0.00,VWS V13.01,2013-04-08 11:27:00,
2013-04-08 05:32:00,24.9,19.6,30.02,NE,45,5.1,5.1,80,0.00,,---,0.00,VWS V13.01,2013-04-08 11:32:00,
2013-04-08 05:37:00,24.6,19.3,30.02,NE,45,2.9,4.6,80,0.00,,---,0.00,VWS V13.01,2013-04-08 11:37:00,
2013-04-08 05:42:00,24.6,19.3,30.03,NE,45,3.1,3.1,80,0.00,,---,0.00,VWS V13.01,2013-04-08 11:42:00,
2013-04-08 05:47:00,24.6,19.3,30.03,NE,45,2.6,2.6,80,0.00,,---,0.00,VWS V13.01,2013-04-08 11:47:00,
2013-04-08 05:52:00,24.6,19.3,30.03,NE,45,4.2,4.2,80,0.00,,---,0.00,VWS V13.01,2013-04-08 11:52:00,
2013-04-08 05:57:00,24.6,19.3,30.03,NE,45,0.0,0.0,80,0.00,,---,0.00,VWS V13.01,2013-04-08 11:57:00,
2013-04-08 06:03:00,24.6,19.3,30.03,NE,45,0.0,0.0,80,0.00,,---,0.00,VWS V13.01,2013-04-08 12:03:00,
2013-04-08 06:09:00,24.4,19.1,30.03,NE,45,5.5,5.5,80,0.00,,---,0.00,VWS V13.01,2013-04-08 12:09:00,
2013-04-08 06:14:00,24.4,19.1,30.03,NE,45,6.4,6.4,80,0.00,,---,0.00,VWS V13.01,2013-04-08 12:14:00,
2013-04-08 06:19:00,24.0,18.7,30.04,NE,45,6.7,6.7,80,0.00,,---,0.00,VWS V13.01,2013-04-08 12:19:00,
2013-04-08 06:24:00,23.7,18.5,30.04,NE,45,7.1,7.1,80,0.00,,---,0.00,VWS V13.01,2013-04-08 12:24:00,
2013-04-08 06:29:00,23.5,18.2,30.05,NE,45,4.2,4.2,80,0.00,,---,0.00,VWS V13.01,2013-04-08 12:29:00,
2013-04-08 06:34:00,23.5,18.2,30.05,NE,45,3.8,3.8,80,0.00,,---,0.00,VWS V13.01,2013-04-08 12:34:00,
2013-04-08 06:40:00,23.3,18.1,30.05,NE,45,6.2,6.2,80,0.00,,---,0.00,VWS V13.01,2013-04-08 12:40:00,
2013-04-08 06:45:00,23.1,17.9,30.05,NE,45,7.1,7.1,80,0.00,,---,0.00,VWS V13.01,2013-04-08 12:45:00,
2013-04-08 06:50:00,23.0,17.8,30.06,NE,45,1.7,4.9,80,0.00,,---,0.00,VWS V13.01,2013-04-08 12:50:00,
2013-04-08 06:55:00,23.0,17.8,30.05,NE,45,0.0,0.0,80,0.00,,---,0.00,VWS V13.01,2013-04-08 12:55:00,
2013-04-08 07:00:00,22.8,17.6,30.05,NE,45,5.3,5.3,80,0.00,,---,0.00,VWS V13.01,2013-04-08 13:00:00,
2013-04-08 07:05:00,22.8,17.6,30.05,NE,45,5.8,5.8,80,0.00,,---,0.00,VWS V13.01,2013-04-08 13:05:00,
2013-04-08 07:11:00,22.8,17.6,30.05,NE,45,5.5,5.5,80,0.00,,---,0.00,VWS V13.01,2013-04-08 13:11:00,
2013-04-08 07:16:00,22.6,17.4,30.06,NE,45,5.3,5.3,80,0.00,,---,0.00,VWS V13.01,2013-04-08 13:16:00,
2013-04-08 07:22:00,22.2,17.0,30.06,NE,45,5.5,6.9,80,0.00,,---,0.00,VWS V13.01,2013-04-08 13:22:00,
2013-04-08 07:27:00,22.1,16.6,30.07,NE,45,5.8,5.8,79,0.00,,---,0.00,VWS V13.01,2013-04-08 13:27:00,
2013-04-08 07:33:00,22.1,16.6,30.08,NE,45,0.0,0.0,79,0.00,,---,0.00,VWS V13.01,2013-04-08 13:33:00,
2013-04-08 07:39:00,22.1,16.6,30.08,NE,45,0.0,0.0,79,0.00,,---,0.00,VWS V13.01,2013-04-08 13:39:00,
2013-04-08 07:45:00,22.1,16.6,30.09,NE,45,5.8,5.8,79,0.00,,---,0.00,VWS V13.01,2013-04-08 13:45:00,
2013-04-08 07:50:00,22.1,16.6,30.10,NE,45,4.6,6.7,79,0.00,,---,0.00,VWS V13.01,2013-04-08 13:50:00,
2013-04-08 07:55:00,22.1,16.6,30.10,NE,45,6.4,6.4,79,0.00,,---,0.00,VWS V13.01,2013-04-08 13:55:00,
2013-04-08 08:00:00,21.9,16.4,30.11,NE,45,8.9,8.9,79,0.00,,---,0.00,VWS V13.01,2013-04-08 14:00:00,
2013-04-08 08:05:00,21.9,16.4,30.11,NE,45,8.7,8.7,79,0.00,,---,0.00,VWS V13.01,2013-04-08 14:05:00,
2013-04-08 08:11:00,21.9,16.4,30.12,NE,45,3.3,6.4,79,0.00,,---,0.00,VWS V13.01,2013-04-08 14:11:00,
2013-04-08 08:17:00,21.9,16.4,30.13,NE,45,6.7,6.7,79,0.00,,---,0.00,VWS V13.01,2013-04-08 14:17:00,
2013-04-08 08:22:00,21.7,16.2,30.13,NE,45,8.9,8.9,79,0.00,,---,0.00,VWS V13.01,2013-04-08 14:22:00,
2013-04-08 08:27:00,21.5,16.0,30.12,NE,45,6.4,6.4,79,0.00,,---,0.00,VWS V13.01,2013-04-08 14:27:00,
2013-04-08 08:33:00,21.5,15.7,30.13,NE,45,5.5,5.5,78,0.00,,---,0.00,VWS V13.01,2013-04-08 14:33:00,
2013-04-08 08:38:00,21.3,15.5,30.13,NE,45,0.0,0.0,78,0.00,,---,0.00,VWS V13.01,2013-04-08 14:38:00,
2013-04-08 08:44:00,21.3,15.5,30.14,NE,45,0.0,0.0,78,0.00,,---,0.00,VWS V13.01,2013-04-08 14:44:00,
2013-04-08 08:49:00,21.3,15.5,30.13,NE,45,0.0,0.0,78,0.00,,---,0.00,VWS V13.01,2013-04-08 14:49:00,
2013-04-08 08:54:00,21.3,15.5,30.13,NE,45,7.1,7.1,78,0.00,,---,0.00,VWS V13.01,2013-04-08 14:54:00,
2013-04-08 08:59:00,21.3,15.5,30.14,NE,45,6.2,6.2,78,0.00,,---,0.00,VWS V13.01,2013-04-08 14:59:00,
2013-04-08 09:05:00,21.3,15.5,30.14,NE,45,6.9,6.9,78,0.00,,---,0.00,VWS V13.01,2013-04-08 15:05:00,
2013-04-08 09:10:00,21.3,15.5,30.13,NE,45,10.7,10.7,78,0.00,,---,0.00,VWS V13.01,2013-04-08 15:10:00,
2013-04-08 09:15:00,21.2,15.4,30.12,NE,45,8.5,8.9,78,0.00,,---,0.00,VWS V13.01,2013-04-08 15:15:00,
2013-04-08 09:20:00,21.0,15.2,30.14,NE,45,8.2,8.2,78,0.00,,---,0.00,VWS V13.01,2013-04-08 15:20:00,
2013-04-08 09:25:00,21.0,15.2,30.14,NE,45,3.3,3.3,78,0.00,,---,0.00,VWS V13.01,2013-04-08 15:25:00,
2013-04-08 09:30:00,21.0,15.2,30.14,NE,45,5.5,5.5,78,0.00,,---,0.00,VWS V13.01,2013-04-08 15:30:00,
2013-04-08 09:35:00,21.0,15.2,30.15,NE,45,5.5,8.7,78,0.00,,---,0.00,VWS V13.01,2013-04-08 15:35:00,
2013-04-08 09:40:00,21.0,15.2,30.15,NE,45,6.2,6.2,78,0.00,,---,0.00,VWS V13.01,2013-04-08 15:40:00,
2013-04-08 09:45:00,21.0,15.2,30.16,NE,45,0.0,0.0,78,0.00,,---,0.00,VWS V13.01,2013-04-08 15:45:00,
2013-04-08 09:50:00,21.0,15.2,30.17,NE,45,0.0,0.0,78,0.00,,---,0.00,VWS V13.01,2013-04-08 15:50:00,
2013-04-08 09:56:00,21.0,15.2,30.16,NE,45,0.0,0.0,78,0.00,,---,0.00,VWS V13.01,2013-04-08 15:56:00,
2013-04-08 10:01:00,21.3,15.2,30.16,NE,45,5.5,5.5,77,0.00,,---,0.00,VWS V13.01,2013-04-08 16:01:00,
2013-04-08 10:06:00,21.0,14.9,30.17,NE,45,2.9,2.9,77,0.00,,---,0.00,VWS V13.01,2013-04-08 16:06:00,
2013-04-08 10:12:00,21.0,14.9,30.17,NE,45,6.2,9.6,77,0.00,,---,0.00,VWS V13.01,2013-04-08 16:12:00,
2013-04-08 10:17:00,21.0,14.9,30.17,NE,45,5.3,5.3,77,0.00,,---,0.00,VWS V13.01,2013-04-08 16:17:00,
2013-04-08 10:22:00,21.0,14.9,30.17,NE,45,0.0,0.0,77,0.00,,---,0.00,VWS V13.01,2013-04-08 16:22:00,
2013-04-08 10:27:00,21.0,14.9,30.17,NE,45,0.0,0.0,77,0.00,,---,0.00,VWS V13.01,2013-04-08 16:27:00,
2013-04-08 10:33:00,21.0,14.9,30.18,NE,45,0.0,2.9,77,0.00,,---,0.00,VWS V13.01,2013-04-08 16:33:00,
2013-04-08 10:38:00,21.3,15.2,30.18,NE,45,7.1,7.1,77,0.00,,---,0.00,VWS V13.01,2013-04-08 16:38:00,
2013-04-08 10:44:00,21.3,15.2,30.18,NE,45,0.0,0.0,77,0.00,,---,0.00,VWS V13.01,2013-04-08 16:44:00,
2013-04-08 10:50:00,21.3,15.2,30.18,NE,45,0.0,0.0,77,0.00,,---,0.00,VWS V13.01,2013-04-08 16:50:00,
2013-04-08 10:55:00,21.5,15.4,30.18,NE,45,5.1,5.1,77,0.00,,---,0.00,VWS V13.01,2013-04-08 16:55:00,
2013-04-08 11:00:00,21.3,15.2,30.18,NE,45,6.0,6.0,77,0.00,,---,0.00,VWS V13.01,2013-04-08 17:00:00,
2013-04-08 11:05:00,21.5,15.4,30.18,NE,45,5.5,5.5,77,0.00,,---,0.00,VWS V13.01,2013-04-08 17:05:00,
2013-04-08 11:10:00,21.7,15.6,30.19,NE,45,0.0,0.0,77,0.00,,---,0.00,VWS V13.01,2013-04-08 17:10:00,
2013-04-08 11:16:00,21.7,15.6,30.19,NE,45,0.0,2.9,77,0.00,,---,0.00,VWS V13.01,2013-04-08 17:16:00,
2013-04-08 11:21:00,21.5,15.4,30.20,NE,45,0.0,0.0,77,0.00,,---,0.00,VWS V13.01,2013-04-08 17:21:00,
2013-04-08 11:27:00,21.5,15.4,30.20,NE,45,6.7,6.7,77,0.00,,---,0.00,VWS V13.01,2013-04-08 17:27:00,
2013-04-08 11:32:00,21.3,15.2,30.20,NE,45,6.7,6.7,77,0.00,,---,0.00,VWS V13.01,2013-04-08 17:32:00,
2013-04-08 11:37:00,21.5,15.4,30.20,NE,45,0.0,0.0,77,0.00,,---,0.00,VWS V13.01,2013-04-08 17:37:00,
2013-04-08 11:43:00,21.5,15.4,30.20,NE,45,0.0,0.0,77,0.00,,---,0.00,VWS V13.01,2013-04-08 17:43:00,
2013-04-08 11:49:00,21.7,15.6,30.21,NE,45,0.0,0.0,77,0.00,,---,0.00,VWS V13.01,2013-04-08 17:49:00,
2013-04-08 11:54:00,21.9,15.8,30.21,NE,45,0.0,0.0,77,0.00,,---,0.00,VWS V13.01,2013-04-08 17:54:00,
2013-04-08 11:59:00,21.9,15.8,30.21,NE,45,0.0,0.0,77,0.00,,---,0.00,VWS V13.01,2013-04-08 17:59:00,
2013-04-08 12:04:00,21.7,15.6,30.21,NE,45,0.0,0.0,77,0.00,,---,0.00,VWS V13.01,2013-04-08 18:04:00,
2013-04-08 12:09:00,21.9,15.8,30.21,NE,45,0.0,0.0,77,0.00,,---,0.00,VWS V13.01,2013-04-08 18:09:00,
2013-04-08 12:14:00,21.7,15.6,30.21,NE,45,0.0,0.0,77,0.00,,---,0.00,VWS V13.01,2013-04-08 18:14:00,
2013-04-08 12:20:00,21.7,15.3,30.21,NE,45,0.0,0.0,76,0.00,,---,0.00,VWS V13.01,2013-04-08 18:20:00,
2013-04-08 12:25:00,21.7,15.3,30.21,NE,45,0.0,0.0,76,0.00,,---,0.00,VWS V13.01,2013-04-08 18:25:00,
2013-04-08 12:30:00,21.7,15.3,30.21,NE,45,0.0,0.0,76,0.00,,---,0.00,VWS V13.01,2013-04-08 18:30:00,
2013-04-08 12:35:00,21.9,15.5,30.21,NE,45,0.0,0.0,76,0.00,,---,0.00,VWS V13.01,2013-04-08 18:35:00,
2013-04-08 12:40:00,21.9,15.5,30.21,NE,45,0.0,0.0,76,0.00,,---,0.00,VWS V13.01,2013-04-08 18:40:00,
2013-04-08 12:45:00,22.1,15.7,30.21,NE,45,0.0,0.0,76,0.00,,---,0.00,VWS V13.01,2013-04-08 18:45:00,
2013-04-08 12:50:00,22.2,15.8,30.21,NE,45,0.0,0.0,76,0.00,,---,0.00,VWS V13.01,2013-04-08 18:50:00,
2013-04-08 12:56:00,22.2,15.8,30.22,NE,45,0.0,0.0,76,0.00,,---,0.00,VWS V13.01,2013-04-08 18:56:00,
2013-04-08 13:02:00,22.2,15.8,30.22,NE,45,0.0,0.0,76,0.00,,---,0.00,VWS V13.01,2013-04-08 19:02:00,
2013-04-08 13:07:00,22.4,16.0,30.21,NE,45,0.0,0.0,76,0.00,,---,0.00,VWS V13.01,2013-04-08 19:07:00,
2013-04-08 13:12:00,22.4,15.7,30.22,NE,45,0.0,0.0,75,0.00,,---,0.00,VWS V13.01,2013-04-08 19:12:00,
2013-04-08 13:17:00,22.4,16.0,30.22,NE,45,0.0,0.0,76,0.00,,---,0.00,VWS V13.01,2013-04-08 19:17:00,
2013-04-08 13:22:00,22.6,16.2,30.22,NE,45,0.0,0.0,76,0.00,,---,0.00,VWS V13.01,2013-04-08 19:22:00,
2013-04-08 13:27:00,22.8,16.4,30.22,NE,45,0.0,0.0,76,0.00,,---,0.00,VWS V13.01,2013-04-08 19:27:00,
2013-04-08 13:32:00,22.8,16.4,30.22,NE,45,0.0,0.0,76,0.00,,---,0.00,VWS V13.01,2013-04-08 19:32:00,
2013-04-08 13:39:00,22.8,16.4,30.22,NE,45,6.0,6.0,76,0.00,,---,0.00,VWS V13.01,2013-04-08 19:39:00,
2013-04-08 13:44:00,22.6,16.2,30.23,NE,45,0.0,0.0,76,0.00,,---,0.00,VWS V13.01,2013-04-08 19:44:00,
2013-04-08 13:49:00,22.8,16.4,30.23,NE,45,0.0,0.0,76,0.00,,---,0.00,VWS V13.01,2013-04-08 19:49:00,
2013-04-08 13:54:00,22.8,16.7,30.22,NE,45,0.0,0.0,77,0.00,,---,0.00,VWS V13.01,2013-04-08 19:54:00,
2013-04-08 13:59:00,23.0,16.9,30.22,NE,45,0.0,0.0,77,0.00,,---,0.00,VWS V13.01,2013-04-08 19:59:00,
2013-04-08 14:05:00,23.1,17.0,30.22,NE,45,0.0,0.0,77,0.00,,---,0.00,VWS V13.01,2013-04-08 20:05:00,
2013-04-08 14:10:00,23.1,17.0,30.22,NE,45,0.0,0.0,77,0.00,,---,0.00,VWS V13.01,2013-04-08 20:10:00,
2013-04-08 14:16:00,23.3,17.2,30.23,NE,45,7.6,7.6,77,0.00,,---,0.00,VWS V13.01,2013-04-08 20:16:00,
2013-04-08 14:21:00,23.1,17.0,30.23,NE,45,7.3,7.3,77,0.00,,---,0.00,VWS V13.01,2013-04-08 20:21:00,
2013-04-08 14:27:00,23.0,16.9,30.23,NE,45,3.5,3.5,77,0.00,,---,0.00,VWS V13.01,2013-04-08 20:27:00,
2013-04-08 14:32:00,22.8,16.7,30.23,NE,45,9.1,9.1,77,0.00,,---,0.00,VWS V13.01,2013-04-08 20:32:00,
2013-04-08 14:37:00,22.8,16.7,30.23,NE,45,8.5,8.5,77,0.00,,---,0.00,VWS V13.01,2013-04-08 20:37:00,
2013-04-08 14:42:00,22.8,16.4,30.24,NE,45,8.9,8.9,76,0.00,,---,0.00,VWS V13.01,2013-04-08 20:42:00,
2013-04-08 14:47:00,22.8,16.7,30.24,NE,45,8.5,8.5,77,0.00,,---,0.00,VWS V13.01,2013-04-08 20:47:00,
2013-04-08 14:54:00,22.8,16.7,30.24,NE,45,6.9,9.8,77,0.00,,---,0.00,VWS V13.01,2013-04-08 20:54:00,
2013-04-08 14:59:00,22.8,16.7,30.24,NE,45,7.1,7.1,77,0.00,,---,0.00,VWS V13.01,2013-04-08 20:59:00,
2013-04-08 15:04:00,22.8,16.7,30.24,NE,45,4.9,5.3,77,0.00,,---,0.00,VWS V13.01,2013-04-08 21:04:00,
2013-04-08 15:09:00,23.1,17.0,30.24,NE,45,8.5,8.5,77,0.00,,---,0.00,VWS V13.01,2013-04-08 21:09:00,
2013-04-08 15:14:00,23.1,17.0,30.24,NE,45,0.0,0.0,77,0.00,,---,0.00,VWS V13.01,2013-04-08 21:14:00,
2013-04-08 15:19:00,23.1,17.0,30.24,NE,45,0.0,5.3,77,0.00,,---,0.00,VWS V13.01,2013-04-08 21:19:00,
2013-04-08 15:24:00,23.0,16.9,30.24,NE,45,4.9,6.7,77,0.00,,---,0.00,VWS V13.01,2013-04-08 21:24:00,
2013-04-08 15:29:00,23.0,16.9,30.24,NE,45,4.2,4.2,77,0.00,,---,0.00,VWS V13.01,2013-04-08 21:29:00,
2013-04-08 15:34:00,23.0,16.9,30.25,NE,45,4.6,8.2,77,0.00,,---,0.00,VWS V13.01,2013-04-08 21:34:00,
2013-04-08 15:40:00,22.8,16.7,30.25,NE,45,6.2,6.4,77,0.00,,---,0.00,VWS V13.01,2013-04-08 21:40:00,
2013-04-08 15:45:00,22.8,16.7,30.25,NE,45,0.0,0.0,77,0.00,,---,0.00,VWS V13.01,2013-04-08 21:45:00,
2013-04-08 15:50:00,22.8,16.7,30.26,NE,45,0.0,0.0,77,0.00,,---,0.00,VWS V13.01,2013-04-08 21:50:00,
2013-04-08 15:55:00,22.8,16.7,30.26,NE,45,5.8,5.8,77,0.00,,---,0.00,VWS V13.01,2013-04-08 21:55:00,
2013-04-08 16:00:00,22.8,16.7,30.26,NE,45,8.9,8.9,77,0.00,,---,0.00,VWS V13.01,2013-04-08 22:00:00,
2013-04-08 16:05:00,22.8,16.7,30.26,NE,45,0.0,0.0,77,0.00,,---,0.00,VWS V13.01,2013-04-08 22:05:00,
2013-04-08 16:10:00,22.6,16.5,30.26,NE,45,0.0,0.0,77,0.00,,---,0.00,VWS V13.01,2013-04-08 22:10:00,
2013-04-08 16:15:00,22.8,16.7,30.26,NE,45,0.0,0.0,77,0.00,,---,0.00,VWS V13.01,2013-04-08 22:15:00,
2013-04-08 16:20:00,22.8,16.7,30.26,NE,45,0.0,0.0,77,0.00,,---,0.00,VWS V13.01,2013-04-08 22:20:00,
2013-04-08 16:25:00,22.6,16.5,30.26,NE,45,0.0,0.0,77,0.00,,---,0.00,VWS V13.01,2013-04-08 22:25:00,
2013-04-08 16:31:00,22.8,16.7,30.26,NE,45,0.0,0.0,77,0.00,,---,0.00,VWS V13.01,2013-04-08 22:31:00,
2013-04-08 16:36:00,22.8,16.7,30.26,NE,45,0.0,0.0,77,0.00,,---,0.00,VWS V13.01,2013-04-08 22:36:00,
2013-04-08 16:41:00,22.8,17.0,30.27,NE,45,4.0,4.0,78,0.00,,---,0.00,VWS V13.01,2013-04-08 22:41:00,
2013-04-08 16:47:00,22.8,17.0,30.27,NE,45,0.0,0.0,78,0.00,,---,0.00,VWS V13.01,2013-04-08 22:47:00,
2013-04-08 16:52:00,22.8,17.0,30.27,NE,45,0.0,0.0,78,0.00,,---,0.00,VWS V13.01,2013-04-08 22:52:00,
2013-04-08 16:57:00,22.8,17.0,30.27,NE,45,0.0,0.0,78,0.00,,---,0.00,VWS V13.01,2013-04-08 22:57:00,
2013-04-08 17:02:00,22.8,17.0,30.27,NE,45,3.8,7.3,78,0.00,,---,0.00,VWS V13.01,2013-04-08 23:02:00,
2013-04-08 17:07:00,22.8,17.0,30.27,NE,45,0.0,0.0,78,0.00,,---,0.00,VWS V13.01,2013-04-08 23:07:00,
2013-04-08 17:12:00,22.6,16.8,30.27,NE,45,0.0,0.0,78,0.00,,---,0.00,VWS V13.01,2013-04-08 23:12:00,
2013-04-08 17:17:00,22.8,17.0,30.27,NE,45,0.0,0.0,78,0.00,,---,0.00,VWS V13.01,2013-04-08 23:17:00,
2013-04-08 17:22:00,22.8,17.0,30.28,NE,45,0.0,0.0,78,0.00,,---,0.00,VWS V13.01,2013-04-08 23:22:00,
2013-04-08 17:27:00,22.8,17.0,30.28,NE,45,0.0,0.0,78,0.00,,---,0.00,VWS V13.01,2013-04-08 23:27:00,
2013-04-08 17:32:00,22.8,17.0,30.28,NE,45,0.0,0.0,78,0.00,,---,0.00,VWS V13.01,2013-04-08 23:32:00,
2013-04-08 17:37:00,22.8,17.0,30.28,NE,45,0.0,0.0,78,0.00,,---,0.00,VWS V13.01,2013-04-08 23:37:00,
2013-04-08 17:42:00,22.8,17.0,30.28,NE,45,0.0,0.0,78,0.00,,---,0.00,VWS V13.01,2013-04-08 23:42:00,
2013-04-08 17:47:00,22.8,17.0,30.28,NE,45,6.4,6.4,78,0.00,,---,0.00,VWS V13.01,2013-04-08 23:47:00,
2013-04-08 17:52:00,22.6,16.8,30.29,NE,45,2.0,2.0,78,0.00,,---,0.00,VWS V13.01,2013-04-08 23:52:00,
2013-04-08 17:57:00,22.4,16.6,30.29,NE,45,2.4,2.4,78,0.00,,---,0.00,VWS V13.01,2013-04-08 23:57:00,
2013-04-08 18:03:00,22.4,16.6,30.30,NE,45,0.0,0.0,78,0.00,,---,0.00,VWS V13.01,2013-04-09 00:03:00,
2013-04-08 18:08:00,22.4,16.6,30.30,NE,45,0.0,0.0,78,0.00,,---,0.00,VWS V13.01,2013-04-09 00:08:00,
2013-04-08 18:13:00,22.4,16.6,30.31,NE,45,0.0,0.0,78,0.00,,---,0.00,VWS V13.01,2013-04-09 00:13:00,
2013-04-08 18:19:00,22.4,16.6,30.31,NE,45,0.0,0.0,78,0.00,,---,0.00,VWS V13.01,2013-04-09 00:19:00,
2013-04-08 18:24:00,22.4,16.6,30.31,NE,45,0.0,0.0,78,0.00,,---,0.00,VWS V13.01,2013-04-09 00:24:00,
2013-04-08 18:29:00,22.6,16.8,30.31,NE,45,0.0,0.0,78,0.00,,---,0.00,VWS V13.01,2013-04-09 00:29:00,
2013-04-08 18:34:00,22.6,16.8,30.32,NE,45,0.0,0.0,78,0.00,,---,0.00,VWS V13.01,2013-04-09 00:34:00,
2013-04-08 18:39:00,22.6,16.8,30.32,NE,45,0.0,0.0,78,0.00,,---,0.00,VWS V13.01,2013-04-09 00:39:00,
2013-04-08 18:44:00,22.6,16.8,30.32,NE,45,10.5,10.5,78,0.00,,---,0.00,VWS V13.01,2013-04-09 00:44:00,
2013-04-08 18:49:00,22.1,16.3,30.32,NE,45,7.1,9.1,78,0.00,,---,0.00,VWS V13.01,2013-04-09 00:49:00,
2013-04-08 18:54:00,21.9,16.1,30.32,NE,45,6.0,6.0,78,0.00,,---,0.00,VWS V13.01,2013-04-09 00:54:00,
2013-04-08 18:59:00,21.9,16.1,30.32,NE,45,6.7,6.7,78,0.00,,---,0.00,VWS V13.01,2013-04-09 00:59:00,
2013-04-08 19:04:00,21.9,16.1,30.32,NE,45,0.0,0.0,78,0.00,,---,0.00,VWS V13.01,2013-04-09 01:04:00,
2013-04-08 19:09:00,21.7,16.2,30.32,NE,45,0.0,0.0,79,0.00,,---,0.00,VWS V13.01,2013-04-09 01:09:00,
2013-04-08 19:15:00,21.7,16.2,30.33,NE,45,0.0,0.0,79,0.00,,---,0.00,VWS V13.01,2013-04-09 01:15:00,
2013-04-08 19:20:00,21.7,16.2,30.33,NE,45,0.0,0.0,79,0.00,,---,0.00,VWS V13.01,2013-04-09 01:20:00,
2013-04-08 19:25:00,21.7,16.2,30.33,NE,45,0.0,0.0,79,0.00,,---,0.00,VWS V13.01,2013-04-09 01:25:00,
2013-04-08 19:30:00,21.7,16.2,30.33,NE,45,0.0,0.0,79,0.00,,---,0.00,VWS V13.01,2013-04-09 01:30:00,
2013-04-08 19:36:00,21.7,16.2,30.33,NE,45,0.0,0.0,79,0.00,,---,0.00,VWS V13.01,2013-04-09 01:36:00,
2013-04-08 19:41:00,21.7,16.2,30.33,NE,45,0.0,0.0,79,0.00,,---,0.00,VWS V13.01,2013-04-09 01:41:00,
2013-04-08 19:46:00,21.7,16.2,30.33,NE,45,0.0,0.0,79,0.00,,---,0.00,VWS V13.01,2013-04-09 01:46:00,
2013-04-08 19:51:00,21.7,16.2,30.33,NE,45,0.0,0.0,79,0.00,,---,0.00,VWS V13.01,2013-04-09 01:51:00,
2013-04-08 19:56:00,21.5,16.0,30.34,NE,45,0.0,0.0,79,0.00,,---,0.00,VWS V13.01,2013-04-09 01:56:00,
2013-04-08 20:01:00,21.5,16.0,30.34,NE,45,0.0,0.0,79,0.00,,---,0.00,VWS V13.01,2013-04-09 02:01:00,
2013-04-08 20:07:00,21.5,16.0,30.34,NE,45,0.0,0.0,79,0.00,,---,0.00,VWS V13.01,2013-04-09 02:07:00,
2013-04-08 20:12:00,21.5,16.0,30.34,NE,45,0.0,0.0,79,0.00,,---,0.00,VWS V13.01,2013-04-09 02:12:00,
2013-04-08 20:17:00,21.5,16.0,30.35,NE,45,0.0,0.0,79,0.00,,---,0.00,VWS V13.01,2013-04-09 02:17:00,
2013-04-08 20:22:00,21.5,16.0,30.34,NE,45,0.0,0.0,79,0.00,,---,0.00,VWS V13.01,2013-04-09 02:22:00,
2013-04-08 20:27:00,21.5,16.0,30.34,NE,45,0.0,0.0,79,0.00,,---,0.00,VWS V13.01,2013-04-09 02:27:00,
2013-04-08 20:32:00,21.5,16.0,30.35,NE,45,0.0,0.0,79,0.00,,---,0.00,VWS V13.01,2013-04-09 02:32:00,
2013-04-08 20:37:00,21.7,16.2,30.35,NE,45,0.0,0.0,79,0.00,,---,0.00,VWS V13.01,2013-04-09 02:37:00,
2013-04-08 20:42:00,21.7,16.2,30.35,NE,45,0.0,0.0,79,0.00,,---,0.00,VWS V13.01,2013-04-09 02:42:00,
2013-04-08 20:47:00,21.7,16.2,30.36,NE,45,0.0,0.0,79,0.00,,---,0.00,VWS V13.01,2013-04-09 02:47:00,
2013-04-08 20:53:00,21.7,16.2,30.36,NE,45,0.0,0.0,79,0.00,,---,0.00,VWS V13.01,2013-04-09 02:53:00,
2013-04-08 20:59:00,21.7,16.2,30.36,NE,45,0.0,0.0,79,0.00,,---,0.00,VWS V13.01,2013-04-09 02:59:00,
2013-04-08 21:04:00,21.7,16.2,30.36,NE,45,0.0,0.0,79,0.00,,---,0.00,VWS V13.01,2013-04-09 03:04:00,
2013-04-08 21:09:00,21.5,16.0,30.36,NE,45,0.0,0.0,79,0.00,,---,0.00,VWS V13.01,2013-04-09 03:09:00,
2013-04-08 21:14:00,21.5,16.0,30.36,NE,45,0.0,0.0,79,0.00,,---,0.00,VWS V13.01,2013-04-09 03:14:00,
2013-04-08 21:20:00,21.5,16.0,30.36,NE,45,0.0,0.0,79,0.00,,---,0.00,VWS V13.01,2013-04-09 03:20:00,
2013-04-08 21:26:00,21.5,16.0,30.36,NE,45,0.0,0.0,79,0.00,,---,0.00,VWS V13.01,2013-04-09 03:26:00,
2013-04-08 21:31:00,21.5,16.0,30.36,NE,45,0.0,0.0,79,0.00,,---,0.00,VWS V13.01,2013-04-09 03:31:00,
2013-04-08 21:36:00,21.7,16.2,30.36,NE,45,0.0,0.0,79,0.00,,---,0.00,VWS V13.01,2013-04-09 03:36:00,
2013-04-08 21:41:00,21.5,16.0,30.36,NE,45,0.0,0.0,79,0.00,,---,0.00,VWS V13.01,2013-04-09 03:41:00,
2013-04-08 21:47:00,21.5,16.0,30.37,NE,45,0.0,0.0,79,0.00,,---,0.00,VWS V13.01,2013-04-09 03:47:00,
2013-04-08 21:52:00,21.3,15.8,30.37,NE,45,0.0,0.0,79,0.00,,---,0.00,VWS V13.01,2013-04-09 03:52:00,
2013-04-08 21:57:00,21.3,15.8,30.38,NE,45,0.0,0.0,79,0.00,,---,0.00,VWS V13.01,2013-04-09 03:57:00,
2013-04-08 22:00:00,21.3,15.8,30.37,NE,45,0.0,0.0,79,0.00,,---,0.00,VWS V13.01,2013-04-09 04:00:00,
2013-04-08 22:01:00,21.3,15.8,30.37,NE,45,0.0,0.0,79,0.00,,---,0.00,VWS V13.01,2013-04-09 04:01:00,
2013-04-08 22:03:00,21.3,15.8,30.37,NE,45,0.0,0.0,79,0.00,,---,0.00,VWS V13.01,2013-04-09 04:03:00,
2013-04-08 22:05:00,21.3,15.8,30.37,NE,45,0.0,0.0,79,0.00,,---,0.00,VWS V13.01,2013-04-09 04:05:00,
2013-04-08 22:10:00,21.0,15.5,30.38,NE,45,0.0,0.0,79,0.00,,---,0.00,VWS V13.01,2013-04-09 04:10:00,
2013-04-08 22:15:00,21.0,15.5,30.38,NE,45,0.0,0.0,79,0.00,,---,0.00,VWS V13.01,2013-04-09 04:15:00,
2013-04-08 22:20:00,21.0,15.5,30.38,NE,45,0.0,0.0,79,0.00,,---,0.00,VWS V13.01,2013-04-09 04:20:00,
2013-04-08 22:25:00,21.0,15.5,30.38,NE,45,0.0,0.0,79,0.00,,---,0.00,VWS V13.01,2013-04-09 04:25:00,
2013-04-08 22:30:00,21.0,15.5,30.38,NE,45,0.0,0.0,79,0.00,,---,0.00,VWS V13.01,2013-04-09 04:30:00,
2013-04-08 22:36:00,21.0,15.5,30.38,NE,45,0.0,0.0,79,0.00,,---,0.00,VWS V13.01,2013-04-09 04:36:00,
2013-04-08 22:41:00,21.0,15.5,30.37,NE,45,0.0,0.0,79,0.00,,---,0.00,VWS V13.01,2013-04-09 04:41:00,
2013-04-08 22:46:00,21.0,15.5,30.38,NE,45,0.0,0.0,79,0.00,,---,0.00,VWS V13.01,2013-04-09 04:46:00,
2013-04-08 22:52:00,21.2,15.7,30.38,NE,45,0.0,0.0,79,0.00,,---,0.00,VWS V13.01,2013-04-09 04:52:00,
2013-04-08 22:57:00,21.2,15.7,30.37,NE,45,0.0,0.0,79,0.00,,---,0.00,VWS V13.01,2013-04-09 04:57:00,
2013-04-08 23:02:00,21.0,15.5,30.38,NE,45,0.0,0.0,79,0.00,,---,0.00,VWS V13.01,2013-04-09 05:02:00,
2013-04-08 23:07:00,21.0,15.5,30.37,NE,45,0.0,0.0,79,0.00,,---,0.00,VWS V13.01,2013-04-09 05:07:00,
2013-04-08 23:12:00,21.0,15.5,30.37,NE,45,0.0,0.0,79,0.00,,---,0.00,VWS V13.01,2013-04-09 05:12:00,
2013-04-08 23:17:00,21.0,15.5,30.37,NE,45,0.0,0.0,79,0.00,,---,0.00,VWS V13.01,2013-04-09 05:17:00,
2013-04-08 23:22:00,20.8,15.3,30.37,NE,45,0.0,0.0,79,0.00,,---,0.00,VWS V13.01,2013-04-09 05:22:00,
2013-04-08 23:27:00,20.8,15.3,30.37,NE,45,0.0,0.0,79,0.00,,---,0.00,VWS V13.01,2013-04-09 05:27:00,
2013-04-08 23:32:00,20.4,14.9,30.37,NE,45,0.0,0.0,79,0.00,,---,0.00,VWS V13.01,2013-04-09 05:32:00,
2013-04-08 23:37:00,20.4,14.9,30.38,NE,45,0.0,0.0,79,0.00,,---,0.00,VWS V13.01,2013-04-09 05:37:00,
2013-04-08 23:42:00,20.4,14.9,30.38,NE,45,0.0,0.0,79,0.00,,---,0.00,VWS V13.01,2013-04-09 05:42:00,
2013-04-08 23:49:00,20.4,14.9,30.38,NE,45,0.0,0.0,79,0.00,,---,0.00,VWS V13.01,2013-04-09 05:49:00,
2013-04-08 23:54:00,20.4,14.9,30.38,NE,45,0.0,0.0,79,0.00,,---,0.00,VWS V13.01,2013-04-09 05:54:00,
2013-04-08 23:59:00,20.4,14.9,30.38,NE,45,0.0,0.0,79,0.00,,---,0.00,VWS V13.01,2013-04-09 05:59:00,